[[{"header":{"parameterUnit":"m.s-1","parameterCategory":1,"la1":30.2991,"la2":30.254,"lo1":-89.0895,"lo2":-89.0444,"dy":0.0017,"dx":0.0017,"nx":28,"ny":28,"refTime":"2024-05-20T21:00:00:Z","depth":0,"parameterNumber":2,"parameterNumberName":"U-component_of_WINDS"},"data":[0,0,0,0,0,0,0,0,0,0,0,0,0,0,0,0,0,0,0,0,0,0,0,0,0,0,0,0,0,0,0,0,0,0,0,0,0,0,0,0,0,0,0,0,0,0,0,0,0,0,0,0,0,0,0,0,0,0,-1.3669,-1.3668,0,-1.3639,-1.3638,-1.3638,-1.3591,-1.359,-1.359,-1.3589,-1.3559,-1.3559,-1.3559,0,0,0,0,0,0,0,0,0,0,0,0,0,-1.3687,-1.3687,-1.3669,-1.3668,-1.3668,-1.3639,-1.3638,-1.3638,-1.3591,-1.359,-1.3589,-1.3588,-1.3559,-1.3559,-1.3559,0,0,0,0,0,0,0,0,0,0,0,0,0,-1.367,-1.3687,-1.3669,-1.3641,-1.3638,-1.3639,-1.3638,-1.3638,-1.3592,-1.359,-1.3589,-1.3588,-1.3559,-1.3559,-1.3559,-1.3584,0,0,-1.3559,-1.3559,0,0,0,0,0,0,0,0,-1.3671,-1.367,-1.3646,-1.3643,-1.364,-1.3617,-1.3634,-1.362,-1.3592,-1.3609,-1.3589,-1.3587,-1.3579,-1.3578,-1.3575,-1.3582,-1.3581,-1.3559,-1.3559,-1.3559,-1.3559,0,0,0,0,0,0,0,-1.3673,-1.3671,-1.3657,-1.3645,-1.3642,-1.3631,-1.3627,-1.3631,-1.3602,-1.3608,-1.3604,-1.3601,-1.3578,-1.3575,-1.3574,-1.3581,-1.3559,-1.3559,-1.3559,-1.3559,-1.3608,-1.3609,0,0,0,0,0,0,-1.3678,-1.3672,-1.3658,-1.3656,-1.3653,-1.3632,-1.3627,-1.3626,-1.3602,-1.3597,-1.3603,-1.3599,-1.3575,-1.3574,-1.3572,-1.3601,-1.3559,-1.3559,-1.3559,-1.3607,-1.3608,-1.361,0,0,0,0,0,0,-1.3678,-1.3677,-1.3659,-1.3663,-1.366,-1.3633,-1.3631,-1.3626,-1.3623,-1.3598,-1.3592,-1.3605,-1.3574,-1.3572,-1.3581,-1.3599,-1.3559,-1.3559,-1.3605,-1.3607,-1.3609,-1.3657,0,0,0,0,0,0,-1.3679,-1.3677,-1.3686,-1.3664,-1.366,-1.3668,-1.3632,-1.3626,-1.3623,-1.3619,-1.3599,-1.3594,-1.3573,-1.3582,-1.3581,-1.3598,-1.3559,-1.3604,-1.3606,-1.3609,-1.3654,-1.366,-1.3666,0,0,0,0,0,-1.368,-1.3701,-1.3687,-1.3686,-1.367,-1.3669,-1.3667,-1.3643,-1.3625,-1.3634,-1.3618,-1.3595,-1.3597,-1.3583,-1.3582,-1.3599,-1.3602,-1.3605,-1.3608,-1.3651,-1.3659,-1.3666,0,0,0,0,0,0,-1.3726,-1.3697,-1.3682,-1.3696,-1.3686,-1.3662,-1.3672,-1.3652,-1.3647,-1.3643,-1.3613,-1.3609,-1.3622,-1.3611,-1.3596,-1.3623,-1.3596,-1.3599,-1.3629,-1.3636,-1.3643,-1.3645,-1.3558,0,0,0,0,0,-1.3738,-1.374,-1.3714,-1.3729,-1.3725,-1.37,-1.3698,-1.368,-1.3668,-1.3664,-1.3648,-1.3638,-1.3636,-1.3636,-1.3633,-1.3652,-1.3647,-1.3664,-1.367,-1.3675,-1.3678,-1.3688,-1.3695,-1.362,-1.362,-1.362,0,0,-1.3763,-1.3747,-1.375,-1.3738,-1.3728,-1.3731,-1.3696,-1.37,-1.3702,-1.3664,-1.3672,-1.366,-1.3647,-1.3661,-1.3667,-1.3653,-1.3698,-1.3679,-1.3683,-1.3683,-1.3692,-1.3699,-1.3706,-1.3622,-1.3621,-1.3621,0,0,-1.3809,-1.3797,-1.3809,-1.3799,-1.3784,-1.3768,-1.3771,-1.375,-1.374,-1.3748,-1.372,-1.3722,-1.3719,-1.3711,-1.3707,-1.3751,-1.373,-1.3751,-1.3783,-1.3793,-1.3799,-1.3804,-1.3821,-1.3827,-1.3754,-1.3754,-1.3754,0,-1.3842,-1.3844,-1.3817,-1.3823,-1.3819,-1.3786,-1.3798,-1.379,-1.3775,-1.3773,-1.3758,-1.3755,-1.3743,-1.3756,-1.3767,-1.3764,-1.3767,-1.3753,-1.3801,-1.3805,-1.381,-1.3825,-1.3831,-1.3757,-1.3756,-1.3756,-1.3756,0,-1.3885,-1.3887,-1.3899,-1.3885,-1.3882,-1.3891,-1.3866,-1.3867,-1.385,-1.3835,-1.3843,-1.3828,-1.3822,-1.3823,-1.3806,-1.3834,-1.3826,-1.3806,-1.3779,-1.382,-1.3834,-1.384,-1.376,-1.3759,-1.3759,-1.3758,0,0,-1.396,-1.3932,-1.3936,-1.393,-1.3911,-1.3913,-1.392,-1.3914,-1.3916,-1.3907,-1.3913,-1.3912,-1.3894,-1.3889,-1.3871,-1.388,-1.3917,-1.3859,-1.3858,-1.3871,-1.3947,-1.3962,-1.3969,-1.3903,-1.3904,-1.3904,-1.3948,0,-1.4003,-1.4014,-1.399,-1.4007,-1.4009,-1.3978,-1.3985,-1.3974,-1.3961,-1.3961,-1.3946,-1.3946,-1.3922,-1.3919,-1.3926,-1.3911,-1.3932,-1.3907,-1.3909,-1.3909,-1.3913,-1.3976,-1.3992,-1.4034,-1.3953,-1.3954,-1.3955,0,-1.4054,-1.4048,-1.4065,-1.4046,-1.4046,-1.4052,-1.4045,-1.4045,-1.4033,-1.4023,-1.4018,-1.3997,-1.4003,-1.3977,-1.3987,-1.3971,-1.397,-1.3963,-1.3964,-1.3963,-1.3935,-1.3978,-1.4047,-1.4053,-1.3963,-1.3962,-1.3962,0,-1.4107,-1.4103,-1.4113,-1.4108,-1.4086,-1.4092,-1.4083,-1.407,-1.4068,-1.4062,-1.406,-1.4055,-1.4053,-1.4049,-1.4028,-1.4011,-1.404,-1.4012,-1.4032,-1.4033,-1.404,-1.404,-1.411,-1.4039,-1.4039,-1.4039,-1.4039,0,-1.4158,-1.417,-1.4137,-1.4143,-1.4156,-1.4129,-1.4142,-1.413,-1.4119,-1.4123,-1.4095,-1.4099,-1.407,-1.4072,-1.4055,-1.4065,-1.4064,-1.4056,-1.4052,-1.4059,-1.406,-1.4058,-1.4055,-1.404,-1.404,-1.404,-1.4039,0,-1.4219,-1.4198,-1.4207,-1.4185,-1.418,-1.419,-1.4172,-1.4177,-1.4162,-1.4167,-1.4167,-1.4143,-1.4143,-1.4121,-1.4117,-1.4106,-1.4124,-1.4114,-1.4128,-1.4125,-1.4146,-1.4145,-1.4218,-1.4227,-1.415,-1.4151,-1.4152,0,-1.4253,-1.4262,-1.4241,-1.4242,-1.4234,-1.4235,-1.4233,-1.4207,-1.4206,-1.4194,-1.4201,-1.4198,-1.4195,-1.4197,-1.418,-1.4177,-1.4167,-1.4192,-1.4166,-1.4173,-1.4168,-1.4168,-1.4169,-1.4198,-1.4199,-1.42,-1.4201,0,-1.4316,-1.4305,-1.4303,-1.4297,-1.4295,-1.429,-1.4283,-1.4285,-1.4257,-1.4257,-1.4257,-1.4255,-1.425,-1.4249,-1.4242,-1.4233,-1.4213,-1.4209,-1.4214,-1.4221,-1.423,-1.4226,-1.4144,-1.4208,-1.4207,-1.4206,-1.4206,-1.4206,-1.4365,-1.4371,-1.4358,-1.4357,-1.4349,-1.4343,-1.4347,-1.4332,-1.4331,-1.4325,-1.431,-1.4313,-1.4301,-1.4291,-1.4284,-1.4286,-1.4273,-1.4279,-1.4281,-1.4283,-1.4288,-1.4229,-1.4284,-1.4284,-1.4284,-1.4284,-1.4284,0,-1.4427,-1.4417,-1.4416,-1.4407,-1.4406,-1.4386,-1.4377,-1.4378,-1.438,-1.4371,-1.4369,-1.4369,-1.4368,-1.435,-1.4347,-1.4352,-1.4342,-1.4352,-1.4352,-1.435,-1.4299,-1.4296,-1.436,-1.436,-1.436,-1.436,-1.436,-1.436,-1.4459,-1.4469,-1.4456,-1.4462,-1.4452,-1.4454,-1.4451,-1.4445,-1.4438,-1.4439,-1.4438,-1.4426,-1.4414,-1.441,-1.4408,-1.4403,-1.4403,-1.4416,-1.4408,-1.4361,-1.4354,-1.4347,-1.4343,-1.4416,-1.4417,-1.4459,-1.446,-1.446]},{"header":{"parameterUnit":"m.s-1","parameterCategory":1,"la1":30.2991,"la2":30.254,"lo1":-89.0895,"lo2":-89.0444,"dy":0.0017,"dx":0.0017,"nx":28,"ny":28,"refTime":"2024-05-20T21:00:00:Z","depth":0,"parameterNumber":3,"parameterNumberName":"V-component_of_WINDS"},"data":[0,0,0,0,0,0,0,0,0,0,0,0,0,0,0,0,0,0,0,0,0,0,0,0,0,0,0,0,0,0,0,0,0,0,0,0,0,0,0,0,0,0,0,0,0,0,0,0,0,0,0,0,0,0,0,0,0,0,3.5275,3.5274,0,3.5242,3.5242,3.5242,3.5174,3.5173,3.5172,3.517,3.5139,3.514,3.514,0,0,0,0,0,0,0,0,0,0,0,0,0,3.5281,3.5281,3.5275,3.5274,3.5274,3.5242,3.5242,3.5241,3.5175,3.5173,3.5171,3.517,3.5139,3.514,3.514,0,0,0,0,0,0,0,0,0,0,0,0,0,3.5267,3.5281,3.5275,3.5237,3.5233,3.5242,3.5242,3.5241,3.5175,3.5173,3.5171,3.5169,3.5139,3.514,3.514,3.5185,0,0,3.5142,3.5142,0,0,0,0,0,0,0,0,3.5268,3.5266,3.5243,3.5239,3.5235,3.521,3.5233,3.5222,3.5176,3.5197,3.517,3.5168,3.5165,3.5163,3.5161,3.5183,3.5182,3.5142,3.5143,3.5143,3.5143,0,0,0,0,0,0,0,3.5269,3.5267,3.5262,3.5243,3.5238,3.5222,3.5218,3.523,3.5193,3.5195,3.519,3.5187,3.5162,3.5161,3.516,3.5181,3.5142,3.5143,3.5143,3.5143,3.5238,3.524,0,0,0,0,0,0,3.5275,3.5269,3.5263,3.5261,3.5247,3.5224,3.5219,3.522,3.5192,3.5186,3.5189,3.5184,3.5161,3.516,3.5159,3.5209,3.5143,3.5144,3.5144,3.5236,3.5239,3.5241,0,0,0,0,0,0,3.5275,3.5275,3.5264,3.5263,3.5261,3.5226,3.5228,3.5221,3.5219,3.5188,3.5181,3.5194,3.5159,3.5158,3.5179,3.5207,3.5144,3.5144,3.5233,3.5237,3.524,3.5309,0,0,0,0,0,0,3.5276,3.5275,3.5291,3.5264,3.5261,3.5284,3.523,3.5222,3.5221,3.5214,3.5191,3.5185,3.5158,3.5178,3.5179,3.5207,3.5145,3.5231,3.5235,3.5239,3.5304,3.5315,3.5323,0,0,0,0,0,3.5276,3.5313,3.5293,3.5292,3.528,3.5286,3.5284,3.5251,3.5223,3.5239,3.5219,3.5186,3.5204,3.5181,3.5182,3.5209,3.5229,3.5234,3.5238,3.53,3.5313,3.5323,0,0,0,0,0,0,3.5345,3.5309,3.5286,3.5315,3.5304,3.5274,3.5294,3.5265,3.5262,3.5257,3.5216,3.5212,3.5238,3.5226,3.5201,3.5251,3.5211,3.5216,3.5258,3.5269,3.5279,3.5281,3.5145,0,0,0,0,0,3.5363,3.537,3.5338,3.5367,3.5362,3.5329,3.533,3.5306,3.5293,3.5288,3.527,3.5259,3.5262,3.5265,3.5266,3.5303,3.5297,3.5322,3.5332,3.534,3.5344,3.5363,3.5374,3.5257,3.5257,3.5256,0,0,3.5401,3.5382,3.5389,3.538,3.5369,3.5377,3.5326,3.5337,3.5343,3.529,3.5308,3.5294,3.528,3.5309,3.532,3.53,3.5376,3.5346,3.5352,3.5353,3.5369,3.538,3.539,3.526,3.5259,3.5259,0,0,3.5475,3.5462,3.5484,3.5473,3.5457,3.5434,3.544,3.5415,3.5404,3.5421,3.5381,3.5389,3.5395,3.5386,3.5383,3.5454,3.5424,3.5456,3.5505,3.5523,3.5532,3.554,3.5566,3.5575,3.5461,3.5461,3.5461,0,3.5525,3.5535,3.5499,3.5512,3.551,3.5462,3.5484,3.5477,3.5462,3.5461,3.5438,3.5445,3.5432,3.5458,3.5475,3.5474,3.5479,3.5458,3.5534,3.5542,3.5549,3.5572,3.5582,3.5465,3.5465,3.5464,3.5464,0,3.5597,3.5605,3.5625,3.5611,3.5611,3.5629,3.5596,3.56,3.5576,3.5557,3.5575,3.5558,3.5555,3.5559,3.5536,3.5582,3.557,3.5541,3.55,3.5564,3.5586,3.5594,3.5471,3.5469,3.5468,3.5467,0,0,3.5712,3.5678,3.5686,3.5679,3.5657,3.5663,3.568,3.5676,3.568,3.5672,3.5685,3.5692,3.5665,3.5661,3.5637,3.5653,3.571,3.5622,3.5621,3.5638,3.576,3.5781,3.5792,3.569,3.5692,3.5693,3.5761,0,3.578,3.5805,3.5773,3.5806,3.5813,3.5768,3.5782,3.5771,3.5754,3.5758,3.5739,3.5744,3.5708,3.5706,3.572,3.57,3.5734,3.5695,3.5702,3.5703,3.5706,3.5803,3.5826,3.589,3.5769,3.577,3.5771,0,3.5863,3.5858,3.5891,3.5867,3.5869,3.5883,3.5877,3.5881,3.5868,3.5854,3.585,3.5821,3.5836,3.5797,3.5817,3.5791,3.5792,3.5783,3.5785,3.5784,3.5741,3.5804,3.591,3.592,3.5784,3.5783,3.5782,0,3.5943,3.5945,3.5965,3.596,3.5934,3.5944,3.5934,3.5918,3.5918,3.5914,3.5913,3.5911,3.5909,3.5909,3.588,3.5854,3.5904,3.5862,3.5893,3.5893,3.5904,3.5904,3.6012,3.5907,3.5906,3.5906,3.5906,0,3.6023,3.6044,3.6,3.6012,3.6036,3.5999,3.6024,3.6009,3.5996,3.6005,3.5966,3.5976,3.5937,3.5942,3.592,3.594,3.594,3.593,3.5923,3.5933,3.5934,3.5932,3.5927,3.5909,3.5908,3.5908,3.5907,0,3.6116,3.6087,3.6105,3.6079,3.6073,3.6091,3.6068,3.6079,3.6059,3.6071,3.6072,3.6041,3.6045,3.6017,3.6016,3.6001,3.6032,3.6018,3.6036,3.6032,3.6064,3.6061,3.6174,3.6186,3.6074,3.6075,3.6076,0,3.6168,3.6183,3.6158,3.6161,3.6152,3.6158,3.6157,3.6123,3.6124,3.611,3.6123,3.6124,3.6123,3.6132,3.611,3.611,3.6095,3.6135,3.6095,3.6104,3.6095,3.6095,3.6096,3.6143,3.6145,3.6146,3.6147,0,3.6263,3.6248,3.6249,3.6245,3.6245,3.624,3.6233,3.6238,3.6201,3.6204,3.6208,3.6207,3.6206,3.6208,3.6203,3.6193,3.6164,3.6159,3.6166,3.6176,3.6185,3.618,3.6058,3.6157,3.6156,3.6155,3.6154,3.6154,3.6337,3.6348,3.6333,3.6335,3.6326,3.632,3.6328,3.631,3.6312,3.6308,3.6288,3.6296,3.6282,3.6273,3.6265,3.6271,3.6252,3.6263,3.6265,3.6268,3.6274,3.6185,3.627,3.627,3.627,3.6269,3.6269,0,3.643,3.6417,3.642,3.641,3.6412,3.6384,3.6375,3.6379,3.6386,3.6376,3.6375,3.638,3.6382,3.636,3.6359,3.6368,3.6355,3.6369,3.6368,3.6366,3.6291,3.6284,3.638,3.638,3.638,3.638,3.638,3.638,3.6478,3.6496,3.648,3.6494,3.6481,3.6488,3.6485,3.648,3.6472,3.6478,3.6479,3.6465,3.6451,3.6448,3.6449,3.6442,3.6444,3.6463,3.6452,3.6382,3.6371,3.6361,3.6355,3.6463,3.6463,3.6526,3.6527,3.6527]}]]